sat.trackr.live / text

‹ back to catalog

STARLINK-11122 [DTC]

NORAD 60040 · 2024-112C

PAYLOAD ACTIVE UNKNOWN

§ Identity

Operator
Country
US
Launch date
2024-06-08
Launch site
AFWTR
Launch vehicle
Mass (kg)
RCS (m²)

Purposes: comms

External: N2YO · Heavens-Above · Gunter

§ Orbital elements

Epoch: 2026-05-24T16:23:03.850080Z

Period
91.74 min
Inclination
53.1614°
Eccentricity
0.0000581
Mean motion
15.69712017 rev/d
Perigee alt
359.3 km
Apogee alt
360.1 km
Semi-major
6,737.9 km
B*
7.3205e-6
RAAN
251.8647°
Arg perigee
91.2004°
Mean anomaly
268.9081°
Rev number
11,291

§ Raw data

STARLINK-11122 [DTC]1 60040U 24112C   26144.68268345  .00000299  00000+0  73205-5 0  99902 60040  53.1614 251.8647 0000581  91.2004 268.9081 15.69712017112912

JSON: /api/v1/satellites/60040 · /tle

For live sub-satellite position, see the globe view (requires WebGL).

§ Visibility from observer

Set your observer location to see the next 7 days of passes ≥ 10°. The values pass through the URL so the page stays shareable.

No JS? Fill the form by hand. The geolocation button needs JavaScript.